Regional Weather Roundup
Issued by NWS Albany, NY

Home | Current Version | Previous Version | Graphics & Text | Print | Product List | Glossary On
Versions: 1 2 3 4 5 6 7 8 9 10 11 12 13 14 15 16 17 18 19 20 21 22 23 24 25 26 27
000
ASUS41 KALY 200710
RWRALY

NEW YORK STATE HOURLY WEATHER ROUNDUP
NATIONAL WEATHER SERVICE ALBANY NY
300 AM EDT SUN APR 20 2014

NOTE: "FAIR" INDICATES FEW OR NO CLOUDS BELOW 12,000 FEET WITH NO
SIGNIFICANT WEATHER AND/OR NO OBSTRUCTIONS TO VISIBILITY.

NYZ032-033-038>043-046>054-057>066-NYZ062>081-200800-
EAST


CITY           SKY/WX    TMP DP  RH WIND       PRES   REMARKS
ALBANY         MOCLDY    33  22  63 CALM      30.44R
GLENS FALLS    CLEAR     36  26  67 N6        30.42F WCI  31
POUGHKEEPSIE   CLEAR     38  28  67 N5        30.42R WCI  34
NEWBURGH       CLEAR     43  27  52 NE12      30.42R
MONTGOMERY     CLEAR     41  26  55 N8        30.41S
WHITE PLAINS   CLEAR     47  24  40 NE7       30.39R
ISLIP          PTCLDY    47  33  58 E6        30.39R
NEW YORK CITY  PTCLDY    49  30  48 NE18      30.39R
CENTRAL PARK   PTCLDY    51  26  37 NE12G21   30.42R
$$

NYZ005>009-017-018-044>046-055-056-200800-
CENTRAL


CITY           SKY/WX    TMP DP  RH WIND       PRES   REMARKS
FULTON         CLEAR     29  26  89 CALM      30.43S
SYRACUSE       PTCLDY    32  28  85 CALM      30.43S
ROME           CLEAR     32  23  69 SE3       30.44R
ELMIRA         PTCLDY    29  25  85 CALM      30.42S
BINGHAMTON     CLEAR     36  26  67 NE3       30.38S
MONTICELLO     PTCLDY    36  25  64 E6        30.40S WCI  31
$$

NYZ026>034-041>043-200800-
NORTH


CITY           SKY/WX    TMP DP  RH WIND       PRES   REMARKS
WATERTOWN      CLEAR     29  23  78 CALM      30.43R
FORT DRUM      NOT AVBL
MASSENA        CLEAR     27  25  92 NE3       30.46F
SARANAC LAKE   CLEAR     17  15  92 N3        30.39F
PLATTSBURGH    CLEAR     28  22  78 CALM      30.46S
$$

NYZ001>004-010>016-019>021-200800-
WEST


CITY           SKY/WX    TMP DP  RH WIND       PRES   REMARKS
NIAGARA FALLS  CLEAR     33  25  72 MISG      30.40F
BUFFALO        PTCLDY    37  26  64 E6        30.40F WCI  32
DUNKIRK        CLEAR     36  26  67 NE8       30.36S WCI  30
JAMESTOWN      CLEAR     39  25  56 E6        30.35S WCI  35
WELLSVILLE     CLEAR     34  24  67 SE3       30.37F
ROCHESTER      CLEAR     34  28  79 CALM      30.43S
PENN YAN       CLEAR     32  26  78 CALM      30.41F
$$

             KEY
       WCI = WIND CHILL INDEX
       VSB = VISIBILITY
       HX  = HEAT INDEX
$$



USA.gov is the U.S. government's official web portal to all federal, state and local government web resources and services.